Regional Weather Roundup
Issued by NWS

Home | Current Version | Previous Version | Text Only | Print | Product List | Glossary Off
Versions: 1 2 3 4 5 6 7 8 9 10 11 12 13 14 15 16 17 18 19 20 21 22 23 24 25 26 27 28 29 30 31 32 33 34 35 36 37 38 39 40 41 42 43 44 45 46 47 48 49 50

000
ASUS43 KBIS 301602
RWRND

NORTH DAKOTA REGIONAL WEATHER ROUNDUP
NATIONAL WEATHER SERVICE BISMARCK ND
1100 AM CDT SUN APR 30 2017

NOTE: "FAIR" INDICATES FEW OR NO CLOUDS BELOW 12,000 FEET WITH NO
SIGNIFICANT WEATHER AND/OR OBSTRUCTIONS TO VISIBILITY.


NDZ001>003-009>011-017-301700-
NORTHWEST NORTH DAKOTA

CITY           SKY/WX    TMP DP  RH WIND       PRES   REMARKS
WILLISTON      FAIR      58  29  33 SW9       29.98F
MINOT          FAIR      63  20  19 SW10      29.99F
MINOT AFB      SUNNY     64  23  21 SW9       29.97F
$$

NDZ018>021-031>035-040>046-301700-
SOUTHWEST NORTH DAKOTA

CITY           SKY/WX    TMP DP  RH WIND       PRES   REMARKS
BISMARCK       FAIR      57  26  30 CALM      30.03F
DICKINSON      FAIR      54  15  21 VRB3      29.98F
GARRISON         N/A     53  24  32 S5        30.01F
HETTINGER ARPT SUNNY     55  19  24 CALM      30.00F
$$

NDZ004>008-012>016-024-026-027-054-301700-
NORTHEAST NORTH DAKOTA

CITY           SKY/WX    TMP DP  RH WIND       PRES   REMARKS
GRAND FORKS    MOSUNNY   55  30  38 SE8       30.10F
GRND FRKS AFB  SUNNY     54  31  41 S7        30.09F
DEVILS LAKE    FAIR      55  28  35 SE8       30.06F
$$

NDZ022-023-025-028>030-036>039-047>053-301700-
SOUTHEAST NORTH DAKOTA

CITY           SKY/WX    TMP DP  RH WIND       PRES   REMARKS
FARGO          MOSUNNY   54  18  24 NE8       30.08F
JAMESTOWN      FAIR      55  27  34 E12       30.05F
$$





USA.gov is the U.S. government's official web portal to all federal, state and local government web resources and services.